Tracking 31013 objects as of 11-Jul-2025
HD Live streaming from Space Station
objects crossing your sky now

STARLINK-31335

Track STARLINK-31335 now!
10-day predictions
STARLINK-31335 is classified as:


NORAD ID: 58969
Int'l Code: 2024-031E
Perigee: 481.6 km
Apogee: 483.1 km
Inclination: 53.2 °
Period: 94.1 minutes
Semi major axis: 6853 km
RCS: Unknown
Launch date: February 15, 2023
Source: United States (US)
Launch site: AIR FORCE WESTERN TEST RANGE (AFWTR)
Your satellite tracking list
Your tracking list is empty




NASA's NSSDC Master Catalog

Two Line Element Set (TLE):
1 58969U 24031E   25191.64687940 -.00000330  00000-0  98479-6 0  9999
2 58969  53.1613 338.2455 0001075  91.7166 268.3958 15.30189294 79516
Source of the keplerian elements: AFSPC